Volver al catálogo

STARLINK-4515

ActivoComunicacionesVLEO
NORAD 53397·PAYLOAD·🇺🇸 United States

Lanzado Aug 10, 2022 desde Cape Canaveral Space Force Station

Loading…

Próximos Pases (próximas 24 horas)

TLE

ActualizadoSource: CelesTrak SupGP

Época: Sep 14, 2026, 21:47 UTC

1 53397C 22097K   26257.90812500 -.00061232  00000+0 -17517-2 0  2579
2 53397  53.1604 348.2305 0001110  82.8640 192.0267 15.35433169    12

Sigue STARLINK-4515 en tiempo real con AllMySat

Download on the App Store